Home > Weather > Syracuse > Past weeks

Flag for USA Past Weather in Syracuse, New York, USA — Yesterday and Last 2 Weeks

Now
84 °F

Scattered clouds.


Feels Like: 83 °F
Forecast: 63 / 89 °F
Wind: 14 mph from West

Location: Syracuse Hancock International Airport

Current Time: Jul 23, 2016 at 9:06:25 PM

Latest Report: Jul 23, 2016 at 7:54 PM


Visibility: 10 mi

Pressure: 29.88 "Hg

Humidity: 40%

Dew Point: 57 °F

Location of SyracuseLocation

Past Weather in Syracuse — Graph

°F

Syracuse Temperature Yesterday

Maximum temperature yesterday: 90 °F (at 5:54 PM)
Minimum temperature yesterday: 79 °F (at 12:54 AM)
Average temperature yesterday: 84 °F

High & Low Weather Summary for the Past Weeks

 TemperatureHumidityPressure
High91 °F (Jul 13, 12:54 PM)100% (Jul 8, 10:54 PM)30.24 "Hg (Jul 8, 10:54 PM)
Low54 °F (Jul 20, 5:54 AM)29% (Jul 11, 3:54 PM)29.66 "Hg (Jul 9, 4:54 AM)
Average73 °F67%29.95 "Hg
* Reported Jul 8 7:54 PM — Jul 23 7:54 PM, Syracuse, Weather by CustomWeather, © 2016

Note: Actual official high and low records may vary slightly from our data, if they occured in-between our weather recording intervals... More about our weather records

Advertising

Syracuse Weather History for the Previous 24 Hours

Scroll right to see more
 ConditionsComfort  
Time TempWeatherWind HumidityBarometerVisibility
7:54 PM
Sat, Jul 23
84 °FScattered clouds.14 mph40%29.88 "Hg10 mi
6:54 PM85 °FScattered clouds.18 mph42%29.86 "Hg10 mi
5:54 PM86 °FPassing clouds.16 mph40%29.85 "Hg10 mi
4:54 PM87 °FScattered clouds.17 mph37%29.84 "Hg10 mi
3:54 PM87 °FScattered clouds.18 mph37%29.85 "Hg10 mi
2:54 PM86 °FScattered clouds.12 mph43%29.85 "Hg10 mi
1:54 PM86 °FPassing clouds.16 mph43%29.85 "Hg10 mi
12:54 PM86 °FPassing clouds.12 mph43%29.86 "Hg10 mi
11:54 AM85 °FPassing clouds.16 mph42%29.86 "Hg10 mi
10:54 AM82 °FPassing clouds.15 mph49%29.84 "Hg10 mi
9:54 AM80 °FPassing clouds.12 mph54%29.84 "Hg10 mi
8:54 AM78 °FPassing clouds.9 mph58%29.84 "Hg10 mi
7:54 AM75 °FPassing clouds.6 mph64%29.84 "Hg10 mi
6:54 AM72 °FPassing clouds.7 mph71%29.85 "Hg10 mi
5:54 AM70 °FPassing clouds.8 mph73%29.84 "Hg10 mi
4:54 AM70 °FPassing clouds.7 mph68%29.83 "Hg10 mi
3:54 AM73 °FClear.10 mph62%29.81 "Hg10 mi
2:54 AM74 °FClear.10 mph60%29.80 "Hg10 mi
1:54 AM76 °FPassing clouds.10 mph54%29.80 "Hg10 mi
12:54 AM77 °FPassing clouds.9 mph54%29.80 "Hg10 mi
11:54 PM
Fri, Jul 22
79 °FPassing clouds.12 mph58%29.80 "Hg10 mi
10:54 PM80 °FPassing clouds.12 mph64%29.79 "Hg10 mi
9:54 PM81 °FPassing clouds.10 mph56%29.78 "Hg10 mi
Weather by CustomWeather, © 2016

See weather overviewHow to use our weather pages